Date String (YYYY-MM-DD hh:mm:ss) UTC,Instrument flags,Ambient pressure (hPa),Sample flow (lpm),Bypass flow (lpm),Sample temperature (°C),Ambient temperature (°C),ASC tube jacket temperature (°C),LED temperature (°C),Box temperature (°C),Sample RH (%),Span deviation,Mass concentration (μg/m³),Mass concentration (μg/m³),Mass concentration (μg/m³)
DateTimeUTC,F1_M11,P_M11,Q1_M11,Q2_M11,T1_M11,T2_M11,T3_M11,T4_M11,T5_M11,U1_M11,ZSPAN_M11,X0_M11,X2_M11,X1_M11
2022-09-10 10:00:00,,0831.0,5.00,0.00,28.8,27.2,00.0,37.6,30.7,26.1,0000.0,0006.96,0004.98,0004.75
2022-09-10 10:01:00,,0831.0,5.01,0.00,28.8,27.2,00.0,37.6,30.6,26.2,0000.0,0006.96,0005.00,0004.79
2022-09-10 10:02:00,,0831.0,5.01,0.00,28.8,27.2,00.0,37.6,30.7,26.2,0000.0,0006.90,0004.99,0004.80
2022-09-10 10:03:00,,0831.0,5.01,0.00,28.8,27.2,00.0,37.6,30.7,26.3,0000.0,0006.81,0004.98,0004.81
2022-09-10 10:04:00,,0831.1,5.00,0.00,28.8,27.2,00.0,37.6,30.7,26.4,0000.0,0006.78,0004.96,0004.79
2022-09-10 10:05:00,,0831.1,5.01,0.00,28.8,27.2,00.0,37.6,30.7,26.3,0000.0,0006.64,0004.91,0004.77
2022-09-10 10:06:00,,0831.1,5.00,0.00,28.8,27.2,00.0,37.6,30.7,26.3,0000.0,0006.52,0004.86,0004.73
2022-09-10 10:07:00,,0831.2,5.00,0.00,28.8,27.2,00.0,37.6,30.7,26.3,0000.0,0006.39,0004.79,0004.67
2022-09-10 10:08:00,,0831.2,5.00,0.00,28.8,27.2,00.0,37.6,30.7,26.3,0000.0,0006.19,0004.72,0004.62
2022-09-10 10:09:00,,0831.2,5.00,0.00,28.8,27.2,00.0,37.6,30.7,26.3,0000.0,0006.15,0004.66,0004.56
2022-09-10 10:10:00,,0831.2,5.00,0.00,28.8,27.2,00.0,37.6,30.7,26.2,0000.0,0006.04,0004.60,0004.51
2022-09-10 10:11:00,,0831.1,5.00,0.00,28.8,27.2,00.0,37.6,30.7,26.1,0000.0,0005.98,0004.56,0004.47
2022-09-10 10:12:00,,0831.1,5.00,0.00,28.8,27.2,00.0,37.6,30.7,26.1,0000.0,0005.83,0004.50,0004.43
2022-09-10 10:13:00,,0831.2,5.00,0.00,28.8,27.2,00.0,37.6,30.7,26.0,0000.0,0005.79,0004.46,0004.39
2022-09-10 10:14:00,,0831.2,5.00,0.00,28.8,27.2,00.0,37.6,30.7,25.9,0000.0,0005.73,0004.41,0004.34
2022-09-10 10:15:00,,0831.2,5.00,0.00,28.8,27.2,00.0,37.6,30.7,26.0,0000.0,0005.73,0004.38,0004.31
2022-09-10 10:16:00,,0831.2,5.01,0.00,28.8,27.2,00.0,37.6,30.6,26.0,0000.0,0005.79,0004.38,0004.29
2022-09-10 10:17:00,,0831.2,5.00,0.00,28.8,27.2,00.0,37.6,30.6,26.0,0000.0,0005.86,0004.40,0004.31
2022-09-10 10:18:00,,0831.1,5.00,0.00,28.8,27.2,00.0,37.6,30.6,26.0,0000.0,0005.96,0004.43,0004.32
2022-09-10 10:19:00,,0831.1,5.00,0.00,28.8,27.2,00.0,37.6,30.6,26.0,0000.0,0006.02,0004.47,0004.36
2022-09-10 10:20:00,,0831.1,5.00,0.00,28.8,27.2,00.0,37.6,30.6,26.0,0000.0,0005.94,0004.47,0004.37
2022-09-10 10:21:00,,0831.1,5.00,0.00,28.8,27.2,00.0,37.6,30.6,26.0,0000.0,0005.96,0004.48,0004.39
2022-09-10 10:22:00,,0831.2,5.00,0.00,28.8,27.1,00.0,37.6,30.6,26.0,0000.0,0006.01,0004.49,0004.40
2022-09-10 10:23:00,,0831.2,5.00,0.00,28.8,27.1,00.0,37.6,30.6,26.0,0000.0,0006.04,0004.50,0004.40
2022-09-10 10:24:00,,0831.2,5.01,0.00,28.8,27.2,00.0,37.5,30.6,26.0,0000.0,0006.04,0004.49,0004.40
2022-09-10 10:25:00,,0831.2,5.00,0.00,28.8,27.2,00.0,37.5,30.6,26.0,0000.0,0006.12,0004.51,0004.41
2022-09-10 10:26:00,,0831.2,5.00,0.00,28.8,27.1,00.0,37.5,30.6,26.0,0000.0,0006.23,0004.52,0004.41
2022-09-10 10:27:00,,0831.2,5.00,0.00,28.8,27.1,00.0,37.5,30.6,26.0,0000.0,0006.20,0004.52,0004.42
2022-09-10 10:28:00,,0831.2,5.01,0.00,28.8,27.2,00.0,37.5,30.6,26.1,0000.0,0006.25,0004.52,0004.41
2022-09-10 10:29:00,,0831.2,4.99,0.00,28.8,27.2,00.0,37.5,30.6,26.8,0000.0,0006.18,0004.49,0004.40
2022-09-10 10:30:00,,0831.2,5.00,0.00,28.8,27.2,00.0,37.5,30.6,27.1,0000.0,0006.17,0004.46,0004.38
2022-09-10 10:31:00,,0831.2,5.00,0.00,28.8,27.1,00.0,37.5,30.6,26.3,0000.0,0006.23,0004.46,0004.37
2022-09-10 10:32:00,,0831.2,5.00,0.00,28.8,27.1,00.0,37.5,30.6,26.2,0000.0,0006.18,0004.44,0004.35
2022-09-10 10:33:00,,0831.1,4.99,0.00,28.8,27.1,00.0,37.5,30.6,26.1,0000.0,0006.18,0004.44,0004.35
2022-09-10 10:34:00,,0831.2,5.00,0.00,28.8,27.1,00.0,37.5,30.6,26.1,0000.0,0006.18,0004.44,0004.36
2022-09-10 10:35:00,,0831.2,5.00,0.00,28.8,27.1,00.0,37.5,30.6,26.0,0000.0,0006.21,0004.46,0004.37
2022-09-10 10:36:00,,0831.1,5.01,0.00,28.7,27.1,00.0,37.5,30.6,26.0,0000.0,0006.19,0004.46,0004.39
2022-09-10 10:37:00,,0831.2,5.01,0.00,28.7,27.1,00.0,37.5,30.6,26.0,0000.0,0006.14,0004.47,0004.39
2022-09-10 10:38:00,,0831.2,5.00,0.00,28.7,27.1,00.0,37.5,30.6,26.0,0000.0,0006.15,0004.49,0004.41
2022-09-10 10:39:00,,0831.2,5.00,0.00,28.7,27.1,00.0,37.5,30.6,26.0,0000.0,0006.13,0004.51,0004.42
2022-09-10 10:40:00,,0831.2,5.01,0.00,28.7,27.1,00.0,37.5,30.6,25.9,0000.0,0006.21,0004.54,0004.46
2022-09-10 10:41:00,,0831.2,5.00,0.00,28.7,27.1,00.0,37.5,30.6,26.0,0000.0,0007.45,0004.60,0004.50
2022-09-10 10:42:00,,0831.2,5.00,0.00,28.7,27.1,00.0,37.5,30.6,26.0,0000.0,0007.47,0004.64,0004.54
2022-09-10 10:43:00,,0831.2,5.00,0.00,28.7,27.1,00.0,37.5,30.6,26.0,0000.0,0007.53,0004.71,0004.60
2022-09-10 10:44:00,,0831.2,5.00,0.00,28.7,27.1,00.0,37.5,30.6,26.0,0000.0,0007.59,0004.78,0004.66
2022-09-10 10:45:00,,0831.2,5.00,0.00,28.7,27.1,00.0,37.5,30.6,26.0,0000.0,0007.65,0004.83,0004.71
2022-09-10 10:46:00,,0831.2,5.00,0.00,28.7,27.1,00.0,37.5,30.5,26.0,0000.0,0007.69,0004.86,0004.74
2022-09-10 10:47:00,,0831.2,5.00,0.00,28.7,27.1,00.0,37.5,30.6,25.8,0000.0,0007.71,0004.88,0004.75
2022-09-10 10:48:00,,0831.2,5.00,0.00,28.7,27.0,00.0,37.5,30.6,25.8,0000.0,0007.74,0004.90,0004.76
2022-09-10 10:49:00,,0831.2,5.00,0.00,28.7,27.0,00.0,37.5,30.6,25.7,0000.0,0007.78,0004.92,0004.78
2022-09-10 10:50:00,,0831.2,4.98,0.00,28.7,27.1,00.0,37.5,30.5,25.7,0000.0,0007.79,0004.93,0004.79
2022-09-10 10:51:00,,0831.2,5.00,0.00,28.7,27.0,00.0,37.5,30.5,25.6,0000.0,0007.80,0004.93,0004.80
2022-09-10 10:52:00,,0831.2,5.00,0.00,28.7,27.0,00.0,37.5,30.5,25.6,0000.0,0007.10,0004.91,0004.78
2022-09-10 10:53:00,,0831.2,5.00,0.00,28.7,27.0,00.0,37.5,30.5,25.6,0000.0,0006.89,0004.92,0004.78
2022-09-10 10:54:00,,0831.2,5.01,0.00,28.7,27.0,00.0,37.5,30.5,25.7,0000.0,0006.87,0004.91,0004.78
2022-09-10 10:55:00,,0831.2,5.00,0.00,28.7,27.0,00.0,37.5,30.5,25.7,0000.0,0006.87,0004.90,0004.77
2022-09-10 10:56:00,,0831.2,5.00,0.00,28.7,27.0,00.0,37.4,30.5,25.8,0000.0,0006.91,0004.87,0004.74
2022-09-10 10:57:00,,0831.2,5.01,0.00,28.7,27.0,00.0,37.4,30.5,25.9,0000.0,0006.86,0004.83,0004.70
2022-09-10 10:58:00,,0831.2,5.01,0.00,28.7,27.0,00.0,37.4,30.5,25.8,0000.0,0006.83,0004.82,0004.68
2022-09-10 10:59:00,,0831.2,5.00,0.00,28.7,27.0,00.0,37.4,30.5,25.8,0000.0,0006.78,0004.81,0004.69
